DW8548 Weather Reports


time (UTC)temp
C
wind
direction
speed
KPH
gust
KPH
rain 1hr
cm
rain 24hr
cm
rain mn
cm
humidity
%
barometer
mb
20260508080056 22 57 1.6 9.7 0.00 0.00 0.00 44 1025.2
20260508074554 22 78 3.2 9.7 0.00 0.00 0.00 44 1025.2
20260508073055 22 202 1.6 9.7 0.00 0.00 0.00 44 1025.2
20260508071558 23 58 1.6 17.7 0.00 0.00 0.00 44 1025.2
20260508070059 23 164 1.6 11.3 0.00 0.00 0.00 43 1025.2
20260508064555 23 104 1.6 12.9 0.00 0.00 0.00 44 1025.4
20260508063103 23 30 1.6 11.3 0.00 0.00 0.00 44 1025.5
20260508062126 23 0 1.6 16.1 0.00 0.00 0.00 44 1025.5
20260508053106 23 36 0.0 9.7 0.00 0.00 0.00 47 1026.1
20260508051554 22 0 1.6 12.9 0.00 0.00 0.00 47 1026.3
20260508044554 22 334 3.2 14.5 0.00 0.00 0.00 49 1026.7
20260508043100 21 313 1.6 16.1 0.00 0.00 0.00 48 1026.9
20260508041602 21 271 1.6 8.0 0.00 0.00 0.00 49 1027.3
20260508040052 21 0 1.6 8.0 0.00 0.00 0.00 51 1027.6
20260508034611 21 360 1.6 8.0 0.00 0.00 0.00 51 1027.9
20260508033058 21 314 1.6 9.7 0.00 0.00 0.00 52 1028.3
20260508031557 20 70 1.6 9.7 0.00 0.00 0.00 54 1028.4
20260508030054 20 288 1.6 9.7 0.00 0.00 0.00 54 1028.7
20260508024555 19 83 1.6 9.7 0.00 0.00 0.00 56 1028.8
20260508023056 18 0 1.6 6.4 0.00 0.00 0.00 59 1028.9
20260508021600 18 144 0.0 6.4 0.00 0.00 0.00 60 1029.1
20260508020100 17 0 1.6 11.3 0.00 0.00 0.00 62 1029.1
20260508014556 17 31 1.6 14.5 0.00 0.00 0.00 63 1029.3
20260508013057 17 231 1.6 8.0 0.00 0.00 0.00 65 1029.5
20260508011603 16 0 0.0 8.0 0.00 0.00 0.00 68 1029.6
20260508010056 15 0 1.6 12.9 0.00 0.00 0.00 69 1029.8
20260508004553 15 104 0.0 6.4 0.00 0.00 0.00 71 1030.0
20260508003057 14 0 1.6 8.0 0.00 0.00 0.00 72 1030.0
20260508001613 13 83 0.0 4.8 0.00 0.00 0.00 73 1030.0
20260508000055 13 0 0.0 4.8 0.00 0.00 0.00 74 1030.0
20260507234553 12 80 0.0 6.4 0.00 0.00 0.00 75 1029.9
20260507233052 12 84 1.6 4.8 0.00 0.00 0.00 75 1029.6
20260507231555 12 0 0.0 4.8 0.00 0.00 0.00 75 1029.4
20260507230053 11 0 0.0 3.2 0.00 0.00 0.00 75 1029.3
20260507224600 11 0 0.0 1.6 0.00 0.00 0.00 74 1029.2
20260507223055 11 0 0.0 1.6 0.00 0.00 0.00 74 1029.0
20260507221551 11 0 0.0 0.0 0.00 0.00 0.00 73 1029.1
20260507220053 12 0 0.0 1.6 0.00 0.00 0.00 72 1029.1
20260507214600 12 0 0.0 1.6 0.00 0.00 0.00 71 1029.1
20260507213058 13 0 0.0 4.8 0.00 0.00 0.00 69 1029.1
20260507211555 13 0 0.0 3.2 0.00 0.00 0.00 68 1029.0
20260507210056 13 0 0.0 4.8 0.00 0.00 0.00 68 1029.0
20260507204559 13 96 0.0 4.8 0.00 0.00 0.00 67 1029.0
20260507203053 13 0 0.0 3.2 0.00 0.00 0.00 67 1028.9
20260507201601 13 0 0.0 3.2 0.00 0.00 0.00 66 1028.7
20260507200108 14 40 0.0 4.8 0.00 0.00 0.00 66 1028.5
20260507194553 14 0 0.0 3.2 0.00 0.00 0.00 67 1028.5
20260507193055 14 0 0.0 3.2 0.00 0.00 0.00 67 1028.5
20260507191557 14 0 0.0 4.8 0.00 0.00 0.00 66 1028.5
20260507190056 14 50 0.0 4.8 0.00 0.00 0.00 66 1028.5
20260507184555 14 103 0.0 4.8 0.00 0.00 0.00 65 1028.5
20260507183053 14 83 0.0 6.4 0.00 0.00 0.00 66 1028.4
20260507181603 14 92 0.0 3.2 0.00 0.00 0.00 64 1028.3
20260507180052 15 90 0.0 6.4 0.00 0.00 0.00 64 1028.4
20260507174556 15 99 0.0 6.4 0.00 0.00 0.00 63 1028.4
20260507173057 15 0 0.0 4.8 0.00 0.00 0.00 63 1028.4
20260507171559 15 71 0.0 4.8 0.00 0.00 0.00 63 1028.4
20260507170055 15 0 0.0 4.8 0.00 0.00 0.00 62 1028.5
20260507164552 15 67 1.6 14.5 0.00 0.00 0.00 61 1028.3
20260507163100 15 98 0.0 6.4 0.00 0.00 0.00 61 1028.3
20260507161601 15 0 0.0 6.4 0.00 0.00 0.00 61 1028.3
20260507160056 15 97 0.0 4.8 0.00 0.00 0.00 61 1028.2
20260507154559 16 71 0.0 9.7 0.00 0.00 0.00 59 1028.1
20260507153101 16 94 1.6 11.3 0.00 0.00 0.00 59 1028.2
20260507151559 16 130 0.0 11.3 0.00 0.00 0.00 58 1028.2
20260507150058 16 0 1.6 9.7 0.00 0.00 0.00 58 1028.3
20260507144554 15 0 1.6 8.0 0.00 0.00 0.00 58 1028.4
20260507143058 16 107 0.0 8.0 0.00 0.00 0.00 58 1028.2
20260507141559 16 55 1.6 9.7 0.00 0.00 0.00 57 1028.1
20260507140104 15 0 0.0 9.7 0.00 0.00 0.00 59 1028.1
20260507134600 15 81 0.0 4.8 0.00 0.00 0.00 59 1028.1
20260507133101 15 0 0.0 8.0 0.00 0.00 0.00 59 1028.1
20260507131602 15 0 0.0 3.2 0.00 0.00 0.00 60 1027.9
20260507130108 15 0 0.0 1.6 0.00 0.00 0.00 60 1027.8
20260507124556 15 0 0.0 3.2 0.00 0.00 0.00 58 1027.8
20260507123053 15 101 0.0 3.2 0.00 0.00 0.00 58 1027.7
20260507121604 15 0 0.0 1.6 0.00 0.00 0.00 57 1027.8
20260507120059 15 0 0.0 0.0 0.00 0.00 0.00 57 1027.7
20260507114611 16 0 0.0 4.8 0.00 0.00 0.00 54 1027.7
20260507113054 17 86 0.0 4.8 0.00 0.00 0.00 52 1027.6
20260507111556 17 0 0.0 6.4 0.00 0.00 0.00 52 1027.7
20260507110109 17 83 0.0 4.8 0.00 0.00 0.00 52 1027.5
20260507104554 17 88 0.0 4.8 0.00 0.00 0.00 52 1027.5
20260507103055 17 85 1.6 6.4 0.00 0.00 0.00 51 1027.4
20260507101603 17 99 0.0 3.2 0.00 0.00 0.00 52 1027.3
20260507100053 18 0 0.0 4.8 0.00 0.00 0.00 49 1027.2
20260507094554 18 94 1.6 9.7 0.00 0.00 0.00 48 1027.0
20260507093057 20 0 1.6 11.3 0.00 0.00 0.00 46 1027.0
20260507091559 20 61 3.2 9.7 0.00 0.00 0.00 46 1027.0
20260507090057 20 113 3.2 12.9 0.00 0.00 0.00 45 1026.8
20260507084555 21 72 1.6 12.9 0.00 0.00 0.00 44 1026.9
20260507083056 21 106 1.6 11.3 0.00 0.00 0.00 44 1027.0
20260507081600 21 81 3.2 12.9 0.00 0.00 0.00 44 1026.9